Location: Bukit Kuda
(3.0500°N, 101.4667°E)
Time: 07:02:24
(UTC+00:00)

Daily predictions for brighter satellites

Satellite Brightness Start Highest point End
(mag) Time Altitude Azimuth Time Altitude Azimuth Time Altitude Azimuth
Ariane H10 2.6 12:05:57 10° NW 12:07:30 22° N 12:08:01 19° NNE
Cosmos 1441 Rocket 2.8 12:06:25 10° N 12:09:40 56° E 12:12:53 10° SSE
ARIANE 5 R/B 3.6 12:04:55 10° S 12:09:42 46° WSW 12:14:31 10° NNW
YAOGAN 1 2.5 12:05:41 10° S 12:09:57 88° W 12:14:11 10° NNW
Geosat 4.3 12:08:03 10° NE 12:12:44 41° ESE 12:17:23 10° S
Aureole 2 4.1 12:12:07 10° NNW 12:15:12 79° WSW 12:18:00 11° S
Ariane 3 Deb 4.2 12:14:20 10° SW 12:18:09 37° SSE 12:23:17 21° ESE
ARIANE 5 R/B 3.4 12:17:55 10° WSW 12:20:40 44° S 12:24:34 22° ESE
Cosmos 1707 Rocket 3.8 12:18:29 10° N 12:22:44 69° W 12:27:01 10° S
Cosmos 1862 Rocket 4.1 12:19:08 10° NNW 12:23:24 60° W 12:27:38 10° S
Cosmos 1869 Rocket 3.4 12:19:39 10° S 12:23:56 67° E 12:28:15 10° N
Atlas Centaur 2 2.7 12:20:13 10° NW 12:25:11 43° NE 12:28:01 27° E
SAR-Lupe-4 3.4 12:23:29 10° SSE 12:27:02 89° WSW 12:30:34 10° NNW
YAOGAN 3 4.5 12:26:54 22° SSE 12:29:28 58° ENE 12:33:35 10° N
SL-24 R/B 4.2 12:28:12 10° NNE 12:32:54 57° E 12:37:14 10° S
Tiangong -1.3 12:31:15 10° NNW 12:33:44 38° NNE 12:33:44 38° NNE
Cosmos 2218 Rocket 4.1 12:29:18 10° SSE 12:35:14 48° E 12:41:05 10° NNE
Spot 4 Rocket 3.9 12:31:01 10° SSE 12:36:07 86° ENE 12:41:12 10° N
Cosmos 962 Rocket 4.5 12:32:28 10° S 12:38:48 87° W 12:45:02 10° N
Meteor 2-5 Rocket 3.7 12:34:55 10° N 12:40:33 87° W 12:46:20 10° S
GPS 2-17 Rocket1 4.3 12:38:33 10° NW 12:42:26 27° NNE 12:43:06 26° NNE
Ariane H10 2.6 12:41:15 10° WSW 12:43:26 44° SSW 12:43:26 44° SSW
HETE-2 4.3 12:40:32 10° W 12:43:54 69° SW 12:43:54 69° SW
Nadezhda 3 Rocket 3.8 12:42:09 10° N 12:48:17 84° E 12:54:29 10° S
PSLV R/B 3.5 12:46:48 35° S 12:48:25 72° WSW 12:52:26 10° NNW
ARIANE 5 DEB (SYLDA) 3.9 12:46:37 10° SW 12:48:10 21° SSW 12:48:10 21° SSW
GPS 2-15 Rocket1 3.8 12:44:57 10° W 12:49:18 40° SSW 12:49:55 38° S
Milstar 3 3.3 12:44:51 10° WSW 12:51:30 66° NNW 12:58:57 17° NE
Cosmos 1125 Rocket 3.5 12:47:56 10° SSW 12:53:06 78° WNW 12:58:16 10° N
RESURS DK-1 4.0 12:51:24 10° SW 12:54:56 32° WNW 12:58:28 10° N
Sakura Rocket 4.2 12:51:57 10° NW 12:56:36 42° NNE 12:56:53 41° NE
SL-4 R/B 4.3 12:55:04 10° SSW 12:55:26 13° SSW 12:55:26 13° SSW
Hubble Space Telescope 1.9 12:59:45 10° W 13:02:46 36° NW 13:02:46 36° NW
NOSS 3-2 (A) 4.4 13:00:45 10° NNW 13:09:48 86° WSW 13:14:51 33° SSE
ARIANE 44LP R/B 3.4 12:51:29 10° W 13:12:25 82° N 13:13:03 71° ENE
Resurs 01 Rocket 3.6 13:10:33 10° SSW 13:14:11 26° W 13:17:49 10° NW
Ariane H10+ 4.5 13:20:44 10° W 13:35:34 71° S 13:39:48 56° SE
Chandra Rocket (1) 4.5 13:00:58 10° WSW 13:36:56 75° NW 13:40:18 49° NE
Atlas Centaur 2 4.4 14:07:56 10° WNW 14:09:56 22° W 14:09:56 22° W
ARIANE 44L R/B 4.5 20:32:33 72° SE 20:32:33 72° SE 21:06:23 10° E
ARIANE 44L R/B 4.5 20:32:32 72° SE 20:32:32 72° SE 21:06:22 10° E
Cosmos 2333 Rocket 3.9 20:33:16 10° NNE 20:38:06 29° ENE 20:42:58 10° SE
Cosmos 2322 Rocket 4.0 20:57:40 10° NNE 21:02:32 30° ENE 21:07:25 10° SE
SL-16 R/B 4.1 20:58:15 10° SE 21:03:46 34° ENE 21:09:15 10° NNE
Cosmos 1655 Rocket 4.1 21:02:03 10° N 21:16:33 - S 21:07:08 63° N
SL-16 R/B 2.6 21:16:55 48° S 21:16:55 48° S 21:20:56 10° SSE
S3M 4.5 21:10:27 10° S 21:16:44 60° E 21:22:58 10° NNE
IUS-1 SRM-2 3.7 21:19:02 33° NNE 21:19:02 33° NNE 21:22:55 10° NE
FengYun 1-2 T 4.4 21:19:18 10° NNE 21:24:53 72° ESE 21:28:51 20° S
CZ-2C R/B 3.4 21:21:30 10° N 21:24:06 32° NNW 21:24:06 32° NNW
Hubble Space Telescope 3.5 21:26:30 10° NNE 21:27:17 10° NNE 21:28:03 10° NE
ARIANE 5 R/B 3.1 21:28:29 36° W 21:32:43 74° N 21:36:16 10° E
ARIANE 5 R/B 4.2 21:35:07 13° SE 21:35:07 13° SE 21:35:36 10° ESE
OAO 2 Rocket 4.0 21:37:49 35° S 21:37:49 35° S 21:41:24 10° SSE
PAYLOAD A 4.0 21:33:10 10° N 21:37:07 50° NW 21:37:07 50° NW
Fermi 4.5 21:39:06 39° N 21:39:06 39° N 21:42:16 10° NE
Cosmos 2297 Rocket 2.3 21:42:35 45° WSW 21:43:41 51° WNW 21:49:08 10° N
Cosmos 990 Rocket 3.8 21:43:14 10° NNW 21:48:19 65° WSW 21:53:26 10° S
Lacrosse 4 Rocket 4.1 21:48:23 10° SE 21:50:38 15° ESE 21:52:53 10° ENE
Meteosat 1 Rocket2 2.5 21:52:04 52° SW 21:52:48 74° SSE 21:56:35 10° ENE
Cosmos 1354 Rocket 4.0 21:49:28 10° NNW 21:54:32 53° WSW 21:59:37 10° S
Ariane H10+ 2.5 21:53:24 29° SW 21:55:39 40° S 21:59:24 10° ESE
Palapa 6 Rocket 2.7 21:57:27 43° W 21:58:26 63° NNW 22:02:32 10° ENE
Cosmos 1939 Rocket 3.6 21:58:59 10° NNW 22:01:42 29° WNW 22:01:42 29° WNW
IRS-1D 4.0 21:57:19 10° NNE 22:02:27 63° ESE 22:07:40 10° S
Delta 2 Rocket 3.0 22:04:16 40° WNW 22:04:47 44° NW 22:07:53 10° NE
Cosmos 2263 Rocket 3.5 21:59:37 10° S 22:04:57 41° ESE 22:10:12 10° NE
Cosmos 158 Rocket 4.2 22:02:12 21° SW 22:05:13 45° WNW 22:10:08 10° N
Cosmos 1814 Rocket 4.3 22:08:48 15° SW 22:12:34 40° WNW 22:17:19 10° N
Cosmos 1703 2.7 22:11:41 10° SSW 22:14:51 55° W 22:18:00 10° N
Cosmos 2315 Rocket 4.2 22:09:00 10° SSW 22:14:59 48° W 22:21:02 10° NNW
SWIFT 1.8 22:15:38 24° SW 22:17:18 59° SSE 22:20:25 10° ENE
BLOCK DM-SL R/B 4.1 22:17:43 19° WSW 22:21:06 68° S 22:44:05 10° E
Cosmos 2333 Rocket 3.4 22:18:05 10° WNW 22:22:05 20° WSW 22:26:06 10° SSW
Cosmos 1709 Rocket 4.2 22:20:29 10° N 22:26:34 76° E 22:32:44 10° S
Ariane H10 2.3 22:22:36 12° W 22:28:37 87° S 22:31:10 10° E
Okean 3 Rocket 4.2 22:24:41 10° NNW 22:28:43 34° W 22:32:47 10° SSW
Cosmos 1500 Rocket 3.5 22:25:27 10° N 22:29:50 73° W 22:34:15 10° S
Intercosmos 25 3.2 22:26:21 10° S 22:30:50 88° W 22:34:09 10° N
UNK 3.7 22:28:08 10° S 22:32:43 72° WSW 22:37:17 10° NNW
Cosmos 2360 Rocket 2.9 22:28:26 10° NW 22:33:15 29° WSW 22:38:05 10° SSW
IGS 5A 3.4 22:29:32 10° NNE 22:33:28 84° E 22:37:25 10° S
SL-8 R/B 3.8 22:29:21 10° NW 22:34:02 78° NE 22:38:46 10° SE
ARIANE 3 DEB 2.7 22:38:33 10° WNW 22:40:57 32° N 22:43:06 10° ENE
USA 234 3.4 22:37:26 10° SE 22:44:00 87° NE 22:50:32 10° NW
Ariane H10 3.4 22:41:56 10° WSW 22:45:08 43° S 22:56:04 10° ESE
Cosmos 1745 Rocket 4.2 22:40:23 10° NNW 22:46:09 45° W 22:51:58 10° SSW
Cosmos 2322 Rocket 3.4 22:42:25 10° WNW 22:46:15 19° WSW 22:50:06 10° SSW
SL-16 R/B 3.6 22:42:30 10° SSW 22:47:01 21° WSW 22:51:33 10° NW
Cosmos 1743 Rocket 3.5 22:44:45 10° N 22:49:03 70° W 22:53:21 10° S
Cosmos 1515 Rocket 3.8 22:45:12 10° S 22:49:30 75° E 22:53:49 10° N
Cosmos 1805 Rocket 4.2 22:46:28 10° NNW 22:50:21 32° W 22:54:13 10° SSW
Cosmos 2227 Rocket 3.0 22:45:47 10° SW 22:50:41 31° WNW 22:55:37 10° NNW
ARIANE 5 R/B 2.2 22:49:18 10° WSW 22:52:38 29° S 22:54:30 10° ESE
Ariane H10 4.2 23:02:40 10° W 23:35:52 71° N 23:40:32 10° ENE
